Date String (YYYY-MM-DD hh:mm:ss) UTC,Instrument flags,Ambient pressure (hPa),Sample flow (lpm),Bypass flow (lpm),Sample temperature (°C),Ambient temperature (°C),ASC tube jacket temperature (°C),LED temperature (°C),Box temperature (°C),Sample RH (%),Span deviation,Mass concentration (μg/m³),Mass concentration (μg/m³),Mass concentration (μg/m³)
DateTimeUTC,F1_M11,P_M11,Q1_M11,Q2_M11,T1_M11,T2_M11,T3_M11,T4_M11,T5_M11,U1_M11,ZSPAN_M11,X0_M11,X2_M11,X1_M11
2022-04-26 06:00:00,,0831.9,4.99,0.00,25.7,24.8,00.0,34.7,27.5,13.7,0000.0,0009.46,0004.08,0003.55
2022-04-26 06:01:00,,0831.9,5.00,0.00,25.7,24.8,00.0,34.7,27.4,13.7,0000.0,0009.41,0004.05,0003.54
2022-04-26 06:02:00,,0831.9,5.00,0.00,25.7,24.8,00.0,34.7,27.4,13.7,0000.0,0008.88,0004.02,0003.53
2022-04-26 06:03:00,,0831.9,5.00,0.00,25.7,24.8,00.0,34.7,27.4,13.7,0000.0,0008.49,0004.00,0003.52
2022-04-26 06:04:00,,0831.9,5.01,0.00,25.7,24.8,00.0,34.7,27.4,13.6,0000.0,0008.56,0004.01,0003.52
2022-04-26 06:05:00,,0831.9,5.00,0.00,25.7,24.8,00.0,34.7,27.5,13.6,0000.0,0008.60,0004.02,0003.52
2022-04-26 06:06:00,,0831.9,5.02,0.00,25.7,24.8,00.0,34.7,27.5,13.6,0000.0,0008.59,0004.03,0003.52
2022-04-26 06:07:00,,0831.9,4.99,0.00,25.6,24.8,00.0,34.7,27.4,13.6,0000.0,0008.71,0004.04,0003.52
2022-04-26 06:08:00,,0832.0,5.00,0.00,25.6,24.8,00.0,34.7,27.4,13.6,0000.0,0008.24,0004.07,0003.52
2022-04-26 06:09:00,,0831.9,5.00,0.00,25.6,24.8,00.0,34.7,27.4,13.5,0000.0,0008.31,0004.11,0003.52
2022-04-26 06:10:00,,0831.9,4.99,0.00,25.6,24.7,00.0,34.6,27.4,13.5,0000.0,0007.95,0004.10,0003.53
2022-04-26 06:11:00,,0832.0,5.01,0.00,25.6,24.7,00.0,34.6,27.4,13.6,0000.0,0008.04,0004.10,0003.53
2022-04-26 06:12:00,,0831.9,5.01,0.00,25.6,24.7,00.0,34.6,27.4,13.7,0000.0,0008.05,0004.10,0003.52
2022-04-26 06:13:00,,0831.9,4.99,0.00,25.6,24.7,00.0,34.6,27.4,13.7,0000.0,0008.26,0004.09,0003.52
2022-04-26 06:14:00,,0831.9,5.00,0.00,25.6,24.7,00.0,34.6,27.4,13.7,0000.0,0009.22,0004.04,0003.51
2022-04-26 06:15:00,,0831.9,5.00,0.00,25.6,24.6,00.0,34.6,27.4,13.7,0000.0,0009.61,0004.03,0003.50
2022-04-26 06:16:00,,0831.8,5.00,0.00,25.6,24.6,00.0,34.6,27.3,13.8,0000.0,0009.75,0004.03,0003.49
2022-04-26 06:17:00,,0831.8,5.01,0.00,25.5,24.6,00.0,34.6,27.3,13.9,0000.0,0009.89,0003.99,0003.49
2022-04-26 06:18:00,,0831.8,5.00,0.00,25.5,24.6,00.0,34.6,27.3,13.9,0000.0,0009.75,0003.97,0003.50
2022-04-26 06:19:00,,0831.8,5.02,0.00,25.5,24.6,00.0,34.6,27.3,13.9,0000.0,0009.58,0003.93,0003.49
2022-04-26 06:20:00,,0831.8,5.00,0.00,25.5,24.6,00.0,34.6,27.3,13.8,0000.0,0009.47,0003.89,0003.48
2022-04-26 06:21:00,,0831.7,5.01,0.00,25.5,24.6,00.0,34.6,27.3,13.9,0000.0,0009.30,0003.91,0003.47
2022-04-26 06:22:00,,0831.7,5.00,0.00,25.5,24.6,00.0,34.5,27.3,13.9,0000.0,0009.01,0003.90,0003.47
2022-04-26 06:23:00,,0831.8,4.99,0.00,25.5,24.6,00.0,34.5,27.2,13.9,0000.0,0009.00,0003.90,0003.48
2022-04-26 06:24:00,,0831.7,5.00,0.00,25.5,24.5,00.0,34.5,27.2,13.9,0000.0,0008.77,0003.90,0003.47
2022-04-26 06:25:00,,0831.6,5.00,0.00,25.4,24.6,00.0,34.5,27.2,13.9,0000.0,0007.83,0003.94,0003.47
2022-04-26 06:26:00,,0831.7,5.00,0.00,25.4,24.5,00.0,34.5,27.2,13.9,0000.0,0007.34,0003.92,0003.46
2022-04-26 06:27:00,,0831.7,5.00,0.00,25.4,24.5,00.0,34.5,27.2,13.9,0000.0,0007.13,0003.90,0003.45
2022-04-26 06:28:00,,0831.7,5.00,0.00,25.4,24.5,00.0,34.5,27.2,13.9,0000.0,0006.78,0003.95,0003.46
2022-04-26 06:29:00,,0831.6,5.00,0.00,25.4,24.5,00.0,34.5,27.2,14.0,0000.0,0006.99,0003.99,0003.46
2022-04-26 06:30:00,,0831.6,5.01,0.00,25.4,24.5,00.0,34.4,27.1,14.0,0000.0,0007.21,0004.00,0003.46
2022-04-26 06:31:00,,0831.6,5.00,0.00,25.4,24.4,00.0,34.4,27.1,14.0,0000.0,0007.33,0003.97,0003.46
2022-04-26 06:32:00,,0831.6,5.00,0.00,25.4,24.4,00.0,34.4,27.1,14.0,0000.0,0007.90,0003.95,0003.45
2022-04-26 06:33:00,,0831.6,4.99,0.00,25.4,24.4,00.0,34.4,27.1,14.0,0000.0,0008.29,0003.95,0003.46
2022-04-26 06:34:00,,0831.5,5.00,0.00,25.4,24.4,00.0,34.4,27.1,14.0,0000.0,0008.38,0003.96,0003.45
2022-04-26 06:35:00,,0831.6,5.00,0.00,25.3,24.4,00.0,34.4,27.1,13.9,0000.0,0008.47,0003.99,0003.45
2022-04-26 06:36:00,,0831.6,5.01,0.00,25.3,24.4,00.0,34.4,27.1,13.9,0000.0,0008.42,0003.97,0003.45
2022-04-26 06:37:00,,0831.6,4.99,0.00,25.3,24.4,00.0,34.4,27.0,13.9,0000.0,0008.52,0003.99,0003.46
2022-04-26 06:38:00,,0831.5,4.99,0.00,25.3,24.3,00.0,34.4,27.1,13.9,0000.0,0008.72,0004.05,0003.47
2022-04-26 06:39:00,,0831.6,5.01,0.00,25.3,24.3,00.0,34.4,27.1,13.9,0000.0,0008.70,0004.03,0003.46
2022-04-26 06:40:00,,0831.5,4.99,0.00,25.3,24.3,00.0,34.3,27.1,13.8,0000.0,0008.58,0003.97,0003.44
2022-04-26 06:41:00,,0831.5,4.99,0.00,25.3,24.4,00.0,34.3,27.1,13.8,0000.0,0008.45,0003.94,0003.44
2022-04-26 06:42:00,,0831.5,5.00,0.00,25.3,24.3,00.0,34.3,27.1,13.8,0000.0,0008.43,0003.98,0003.45
2022-04-26 06:43:00,,0831.4,5.01,0.00,25.3,24.3,00.0,34.3,27.0,13.9,0000.0,0007.84,0004.00,0003.44
2022-04-26 06:44:00,,0831.4,5.01,0.00,25.3,24.3,00.0,34.3,27.0,13.9,0000.0,0007.36,0003.99,0003.43
2022-04-26 06:45:00,,0831.4,5.00,0.00,25.2,24.3,00.0,34.3,27.0,13.9,0000.0,0007.25,0003.99,0003.42
2022-04-26 06:46:00,,0831.4,4.99,0.00,25.2,24.3,00.0,34.3,27.0,13.9,0000.0,0007.18,0003.98,0003.43
2022-04-26 06:47:00,,0831.4,5.00,0.00,25.2,24.2,00.0,34.3,27.0,13.9,0000.0,0006.90,0003.96,0003.44
2022-04-26 06:48:00,,0831.4,5.01,0.00,25.2,24.3,00.0,34.3,27.0,13.9,0000.0,0007.38,0003.94,0003.42
2022-04-26 06:49:00,,0831.4,5.00,0.00,25.2,24.2,00.0,34.3,26.9,13.9,0000.0,0007.12,0003.90,0003.42
2022-04-26 06:50:00,,0831.4,4.99,0.00,25.2,24.2,00.0,34.2,26.9,14.0,0000.0,0007.12,0003.90,0003.43
2022-04-26 06:51:00,,0831.4,5.00,0.00,25.2,24.2,00.0,34.2,26.9,14.0,0000.0,0007.59,0003.94,0003.42
2022-04-26 06:52:00,,0831.4,5.01,0.00,25.2,24.2,00.0,34.2,26.9,14.0,0000.0,0008.19,0003.97,0003.42
2022-04-26 06:53:00,,0831.4,5.00,0.00,25.1,24.1,00.0,34.2,26.9,14.0,0000.0,0008.71,0003.95,0003.41
2022-04-26 06:54:00,,0831.4,5.00,0.00,25.1,24.1,00.0,34.2,26.8,14.1,0000.0,0008.68,0003.92,0003.41
2022-04-26 06:55:00,,0831.4,4.99,0.00,25.1,24.1,00.0,34.2,26.8,14.1,0000.0,0008.84,0003.88,0003.40
2022-04-26 06:56:00,,0831.4,5.00,0.00,25.1,24.0,00.0,34.2,26.8,14.1,0000.0,0009.30,0003.86,0003.41
2022-04-26 06:57:00,,0831.4,5.01,0.00,25.1,24.0,00.0,34.2,26.8,14.1,0000.0,0009.29,0003.85,0003.40
2022-04-26 06:58:00,,0831.4,4.98,0.00,25.1,24.0,00.0,34.2,26.8,14.2,0000.0,0009.44,0003.85,0003.39
2022-04-26 06:59:00,,0831.4,5.00,0.00,25.1,24.0,00.0,34.1,26.8,14.2,0000.0,0009.25,0003.85,0003.38
